TimeMST,TemperatureF,Dew PointF,Humidity,Sea Level PressureIn,VisibilityMPH,Wind Direction,Wind SpeedMPH,Gust SpeedMPH,PrecipitationIn,Events,Conditions,WindDirDegrees,DateUTC
12:53 AM,69.1,30.0,23,29.85,10.0,ENE,4.6,-,N/A,,Clear,70,2013-04-05 07:53:00
1:53 AM,66.9,30.9,26,29.85,10.0,Calm,Calm,-,N/A,,Clear,0,2013-04-05 08:53:00
2:53 AM,64.9,32.0,29,29.85,10.0,Calm,Calm,-,N/A,,Clear,0,2013-04-05 09:53:00
3:53 AM,68.0,30.0,24,29.84,10.0,East,6.9,-,N/A,,Clear,90,2013-04-05 10:53:00
4:53 AM,66.9,30.0,25,29.84,10.0,East,8.1,-,N/A,,Clear,90,2013-04-05 11:53:00
5:53 AM,61.0,30.0,31,29.86,10.0,East,5.8,-,N/A,,Clear,90,2013-04-05 12:53:00
6:53 AM,62.1,30.9,31,29.87,10.0,Calm,Calm,-,N/A,,Clear,0,2013-04-05 13:53:00
7:53 AM,69.1,34.0,27,29.88,10.0,Calm,Calm,-,N/A,,Clear,0,2013-04-05 14:53:00
8:53 AM,71.1,37.0,29,29.89,10.0,Variable,3.5,-,N/A,,Clear,0,2013-04-05 15:53:00
9:53 AM,73.9,39.0,28,29.89,10.0,SSE,3.5,-,N/A,,Clear,160,2013-04-05 16:53:00
10:53 AM,77.0,39.0,25,29.88,10.0,Variable,4.6,-,N/A,,Clear,0,2013-04-05 17:53:00
11:53 AM,80.1,37.0,21,29.86,10.0,SE,3.5,-,N/A,,Clear,140,2013-04-05 18:53:00
12:53 PM,82.0,33.1,17,29.84,10.0,Variable,5.8,-,N/A,,Clear,0,2013-04-05 19:53:00
1:53 PM,84.0,32.0,15,29.81,10.0,WSW,13.8,20.7,N/A,,Clear,240,2013-04-05 20:53:00
2:53 PM,84.9,33.1,16,29.79,10.0,WSW,18.4,24.2,N/A,,Clear,240,2013-04-05 21:53:00
3:53 PM,84.0,30.9,15,29.78,10.0,SW,15.0,-,N/A,,Clear,230,2013-04-05 22:53:00
4:53 PM,84.0,30.0,14,29.78,10.0,WSW,11.5,-,N/A,,Clear,240,2013-04-05 23:53:00
5:53 PM,82.9,23.0,11,29.78,10.0,WSW,11.5,-,N/A,,Clear,240,2013-04-06 00:53:00
6:53 PM,80.1,24.1,13,29.77,10.0,SW,5.8,-,N/A,,Clear,230,2013-04-06 01:53:00
7:53 PM,77.0,25.0,15,29.78,10.0,Calm,Calm,-,N/A,,Clear,0,2013-04-06 02:53:00
8:53 PM,73.9,27.0,18,29.81,10.0,Calm,Calm,-,N/A,,Clear,0,2013-04-06 03:53:00
9:53 PM,73.9,28.0,18,29.82,10.0,South,3.5,-,N/A,,Clear,180,2013-04-06 04:53:00
10:53 PM,71.1,30.9,23,29.82,10.0,Calm,Calm,-,N/A,,Clear,0,2013-04-06 05:53:00
11:53 PM,69.1,30.9,24,29.83,10.0,Calm,Calm,-,N/A,,Clear,0,2013-04-06 06:53:00